Wind_Speed
48 46 44 43 45 43 43 41 39 37 33 32 30 30 31 33 30 30 28 29 28 26 28 25 24 24 25 24 23 22 22 19 16 13 12 11 6 6 6 8 8 11 14 18 20 19 15 11 13 15 14 13 12 8
48 44 43 42 42 43 42 41 40 38 35 32 29 32 31 31 31 30 29 28 28 24 25 23 21 22 24 22 21 20 20 15 10 7 12 13 11 8 12 8 11 13 14 18 19 22 21 16 17 18 16 16 16 17
51 48 45 42 41 40 42 41 40 39 37 35 33 32 32 32 32 29 27 25 23 22 22 23 19 22 20 21 18 19 21 17 10 5 5 9 14 11 9 9 12 14 19 19 22 26 26 25 21 17 19 21 22 19
53 51 47 44 41 40 40 41 41 40 37 36 33 33 30 28 28 29 27 23 22 18 19 21 20 20 17 17 17 18 16 20 11 9 8 8 10 16 12 8 10 11 16 24 21 23 25 23 19 20 18 20 21 21
53 51 48 46 42 40 40 41 39 39 38 39 37 33 29 26 27 28 24 22 18 17 16 18 18 17 17 17 17 15 16 22 17 12 11 10 12 12 14 14 9 7 6 11 14 23 19 17 20 19 18 22 19 18
49 49 48 45 43 41 40 40 38 35 43 38 34 32 29 26 26 24 22 20 16 16 16 18 16 15 15 16 16 16 16 20 21 16 14 11 11 6 9 12 9 7 2 6 11 15 16 20 22 20 20 12 6 10
46 46 46 45 43 41 40 39 36 35 35 34 30 27 27 25 23 21 20 15 15 17 18 17 16 16 16 17 16 16 17 21 20 20 16 13 13 7 6 12 11 10 7 6 6 7 7 11 12 9 9 9 7 5
44 44 44 44 42 40 39 38 37 34 33 29 26 25 26 24 21 18 16 16 15 15 16 15 16 17 16 15 14 15 16 17 18 18 19 16 14 6 6 15 13 13 13 11 8 3 5 5 7 4 5 5 5 5
42 42 43 42 40 41 38 37 36 33 27 26 23 23 21 19 18 17 18 16 15 16 15 14 14 15 14 14 15 14 15 14 13 15 16 14 12 6 14 13 15 15 10 10 8 6 5 5 6 5 6 7 7 8
40 41 41 42 41 40 40 37 33 30 29 24 20 19 19 20 20 19 15 15 15 15 14 15 14 14 13 13 13 12 14 14 15 12 10 11 13 15 9 8 7 8 9 11 11 11 9 10 11 9 8 8 6 7
37 39 40 41 41 39 37 33 30 26 26 23 21 23 19 19 17 15 15 15 15 15 14 14 14 13 13 13 12 14 13 15 14 10 9 10 12 14 12 9 9 6 8 10 10 10 11 10 8 7 7 8 9 11
34 37 39 40 39 36 33 29 28 28 25 28 23 23 22 18 16 16 16 15 14 14 13 12 12 13 13 12 13 12 12 14 11 10 9 11 10 9 10 12 12 9 8 9 9 10 10 9 9 9 9 11 12 13
31 35 37 37 35 32 30 30 29 33 27 21 24 23 20 20 17 17 16 11 10 11 11 11 12 11 12 12 11 13 14 14 11 13 10 10 9 9 11 10 11 11 7 8 10 13 11 9 10 11 12 13 14 14
31 35 36 33 32 31 29 28 29 25 24 24 21 20 20 19 22 22 19 14 12 10 10 11 11 10 11 13 13 14 15 16 14 12 14 9 9 14 18 20 16 12 9 10 10 7 9 10 11 13 15 15 16 14
33 34 33 31 32 28 26 29 32 25 25 22 21 23 22 19 16 16 17 17 14 13 13 12 11 10 9 11 11 18 17 16 16 16 17 15 13 15 14 16 15 12 10 10 9 9 11 12 14 16 17 18 19 18
33 33 31 28 29 29 27 22 25 25 21 20 20 20 18 17 17 16 16 14 15 14 13 13 12 12 9 11 12 12 16 19 15 17 17 12 11 10 10 14 10 10 9 9 12 13 15 17 19 20 20 21 20 19
39 33 27 28 28 29 31 27 23 24 21 21 20 19 18 17 16 17 19 17 16 14 14 13 13 12 11 13 17 19 19 22 22 21 23 20 12 14 17 12 14 12 11 13 11 12 15 16 18 19 21 22 21 18
24 37 44 30 28 28 27 26 21 21 24 22 19 18 17 16 16 16 15 16 16 15 13 17 15 13 12 11 14 17 22 27 26 24 28 25 24 15 18 17 17 15 11 11 12 13 14 19 21 22 23 23 22 21
22 24 25 29 27 26 24 21 20 21 22 22 20 17 16 15 15 16 17 16 16 17 16 17 17 14 13 12 13 15 20 21 23 28 28 22 26 20 18 17 16 18 15 15 16 15 19 20 22 24 24 25 25 25
27 27 26 27 27 25 23 19 17 20 22 22 19 16 14 14 14 14 14 14 14 17 19 20 21 19 16 16 14 15 19 20 20 22 24 23 30 22 15 17 17 14 12 13 15 19 21 22 22 22 24 26 28 30
28 26 27 26 25 24 22 19 17 20 20 18 16 14 14 13 12 13 13 11 12 13 18 21 18 15 16 18 17 12 16 20 19 17 19 4 2 9 12 12 12 13 15 17 19 21 21 22 25 27 27 29 29 31
26 26 27 27 20 18 18 20 19 20 18 15 15 14 13 13 13 15 13 11 13 15 16 15 15 14 13 14 12 9 11 12 16 16 18 7 9 11 10 15 18 20 20 21 21 20 22 24 24 25 28 27 26 26
21 22 22 22 22 22 20 19 20 19 17 15 13 14 15 14 14 13 9 12 16 17 13 11 9 11 14 12 8 8 9 10 11 13 12 13 16 13 10 13 17 18 19 21 22 23 21 22 17 21 22 20 21 22
18 18 18 18 19 21 21 20 18 17 16 17 18 16 12 11 10 9 11 12 11 11 11 11 11 14 14 10 8 11 10 4 5 10 17 13 13 16 15 15 16 17 20 23 21 20 16 13 15 16 18 18 17 19
17 18 17 17 19 20 18 17 18 20 20 19 15 15 11 10 9 5 6 4 6 9 11 13 14 12 13 12 12 9 8 9 5 6 8 10 14 16 17 19 21 22 21 22 19 14 15 17 19 21 22 22 23 24
20 19 19 20 20 20 20 21 21 23 22 20 18 17 15 12 8 6 10 9 10 9 9 10 10 11 14 8 6 7 4 5 5 8 10 12 15 17 17 17 16 15 15 14 14 16 21 22 23 25 28 28 26 24
24 24 24 23 23 22 23 24 24 24 24 23 21 18 14 17 21 24 16 17 13 13 15 14 13 11 8 7 6 6 5 6 9 10 11 13 14 15 15 17 18 19 18 19 19 23 23 23 25 24 26 28 27 26
26 25 25 26 27 29 28 27 26 26 26 25 25 22 20 21 21 18 12 10 8 8 9 8 6 4 3 2 1 2 4 6 8 10 9 12 15 16 18 19 20 20 19 22 24 23 24 26 28 30 33 35 34 32
28 27 26 28 27 30 32 26 31 33 25 25 23 21 20 16 13 11 10 10 9 9 8 7 7 7 5 4 3 3 4 6 9 11 13 15 17 17 18 18 19 19 22 24 25 26 29 32 35 37 37 34 31 30
41 40 33 34 34 33 35 36 32 30 28 25 22 17 14 12 10 10 10 9 9 9 8 5 5 6 6 6 7 7 8 9 10 13 15 15 16 17 19 21 24 27 30 34 35 36 35 34 34 34 35 34 34 34
34 33 33 33 30 28 26 25 23 22 21 19 18 19 11 9 12 10 9 8 7 5 5 7 10 9 7 8 9 11 13 14 16 17 18 20 22 24 26 28 28 27 27 28 29 31 31 32 32 32 32 33 33 33
30 28 26 26 26 26 24 23 24 18 13 14 13 11 10 9 6 4 4 4 4 2 5 9 11 10 9 10 11 12 13 15 18 19 19 18 18 19 22 24 26 28 29 31 31 31 31 31 31 31 30 30 29 30
25 26 26 25 27 27 24 21 19 19 16 14 12 11 10 6 2 2 6 7 6 7 11 13 12 11 10 10 11 11 12 13 15 16 17 18 20 22 24 25 27 29 29 29 29 30 30 29 29 29 29 29 30 30
Wind_Direction
257 257 257 257 256 253 254 252 251 253 255 258 257 253 253 253 251 253 263 263 260 265 270 277 283 278 282 287 295 291 283 282 285 289 257 247 283 253 224 238 258 258 224 229 240 243 255 258 273 285 295 280 262 242
254 254 254 254 254 252 250 250 247 250 250 252 254 249 250 255 258 257 260 261 262 267 272 278 276 277 281 286 290 287 277 257 272 281 262 260 251 266 260 263 236 249 247 241 246 248 251 256 271 282 280 285 293 300
251 252 252 252 252 250 249 248 245 247 248 248 252 250 254 259 256 260 259 259 261 269 274 275 272 271 277 283 284 274 268 247 256 281 284 269 234 249 288 262 250 264 234 236 238 243 246 251 263 265 276 278 279 276
248 248 249 249 248 247 245 245 245 243 246 245 249 252 255 254 254 256 254 256 260 269 270 273 270 274 274 280 278 278 273 244 244 251 277 284 269 247 257 274 291 290 236 229 234 246 247 249 251 261 258 269 273 273
244 244 244 244 245 243 242 242 243 243 244 245 250 256 253 249 252 254 253 258 264 263 255 259 266 269 273 281 278 273 255 239 241 247 258 278 289 247 252 268 293 295 257 222 232 229 242 249 243 254 255 276 255 248
241 239 238 237 238 238 238 239 240 239 248 249 250 253 258 254 250 250 250 256 260 256 254 261 262 265 266 269 264 259 253 249 243 247 251 266 290 265 262 260 267 255 227 196 209 228 238 248 256 270 273 243 237 259
237 235 232 231 232 232 234 235 236 238 241 244 247 245 248 248 247 247 249 249 250 256 259 261 259 264 264 266 265 259 252 245 245 245 248 250 278 276 251 247 245 232 205 181 138 142 227 261 246 238 257 260 243 238
232 229 226 225 226 226 229 230 231 234 238 240 241 241 242 239 238 242 241 245 250 252 251 253 261 265 265 261 257 246 248 249 244 242 239 252 268 279 225 233 227 224 209 204 255 277 254 258 267 257 248 266 296 299
226 223 220 219 217 219 224 227 229 223 231 233 230 240 237 236 239 236 241 242 240 242 246 257 265 265 265 264 257 252 250 235 234 244 246 243 258 248 242 242 219 213 222 250 262 262 261 247 256 266 272 279 287 291
220 217 214 213 214 218 217 223 225 207 222 229 222 232 227 231 236 237 229 226 233 236 250 260 258 258 262 263 258 246 246 224 239 237 240 241 236 232 233 228 228 212 214 236 233 229 237 240 245 249 251 260 281 306
211 209 208 208 210 213 216 217 220 217 204 206 223 225 227 230 233 225 216 221 231 236 247 253 253 261 262 251 248 249 251 235 235 218 220 214 229 242 241 233 237 220 237 239 230 227 232 234 238 261 281 300 311 320
202 201 202 203 206 208 209 211 212 206 211 217 215 220 220 221 218 209 208 222 233 236 246 252 258 264 256 250 249 248 231 216 200 215 213 202 229 234 224 224 223 214 210 225 224 232 235 240 258 286 305 313 319 319
197 195 195 198 200 201 201 204 204 207 217 210 209 211 211 213 211 206 208 225 244 239 244 252 262 265 254 246 245 234 210 203 204 217 233 207 207 210 210 213 221 219 214 229 231 227 233 254 276 295 310 313 305 305
189 188 188 193 193 196 196 198 196 205 206 203 203 206 211 213 215 215 219 237 249 246 248 252 261 265 264 252 250 230 212 203 206 219 217 226 229 229 238 216 221 224 234 244 250 263 278 282 290 298 301 299 292 307
179 177 184 187 189 186 186 196 193 199 197 200 202 205 208 211 213 216 226 234 234 234 238 243 255 263 255 262 244 204 212 214 215 225 220 220 229 244 237 218 211 231 257 266 275 284 284 286 295 299 298 299 301 310
173 177 184 183 182 186 195 185 184 186 190 196 197 200 203 210 217 218 219 221 228 233 239 243 248 248 242 235 211 205 221 220 208 216 216 222 198 221 244 176 202 236 261 280 284 283 284 290 295 298 302 301 304 313
170 172 184 170 175 182 187 194 191 192 198 190 206 207 208 212 217 223 224 220 220 230 238 243 248 249 247 238 234 228 229 231 223 225 223 227 198 200 237 233 221 229 267 306 302 288 288 294 297 299 299 301 308 309
187 179 180 178 176 177 181 180 180 183 186 201 206 207 212 215 217 219 212 210 217 226 245 239 244 253 247 246 239 243 241 242 239 239 234 242 236 196 214 236 253 267 270 289 281 281 293 299 301 299 302 304 304 305
164 150 164 171 170 174 174 172 179 181 190 197 201 206 210 213 213 213 218 219 232 234 233 233 237 241 256 270 259 253 246 253 239 239 242 245 265 260 244 237 254 272 279 296 300 301 308 309 305 301 301 304 304 303
165 169 172 171 175 170 165 167 173 186 196 202 203 203 205 206 217 228 236 237 239 234 224 225 231 242 261 269 268 258 248 243 239 237 241 260 259 252 238 242 258 279 290 298 304 303 302 302 297 297 300 301 300 298
170 171 172 172 173 176 190 187 194 197 202 199 196 199 204 215 228 236 225 235 236 227 225 231 237 250 258 263 269 263 254 241 244 241 234 325 271 240 256 260 274 292 293 291 295 297 296 299 303 305 306 305 305 304
172 177 186 192 191 191 192 194 194 202 204 200 200 203 213 223 225 220 225 255 242 228 220 227 238 252 256 254 253 256 235 248 254 237 238 289 294 303 286 271 275 283 285 287 287 294 306 303 306 316 317 316 313 312
168 173 179 183 186 189 190 194 199 204 204 201 200 214 223 220 217 216 226 221 222 231 243 243 236 238 240 236 212 209 211 234 240 237 246 260 277 273 267 282 285 283 285 291 300 303 302 307 314 326 324 318 319 320
174 176 177 181 183 181 181 185 191 196 197 192 196 207 200 196 205 209 219 237 242 230 228 235 235 227 225 220 239 223 202 217 260 229 221 233 258 289 283 281 281 283 288 291 295 299 303 293 303 311 320 320 316 318
160 164 166 168 168 173 180 184 187 186 180 178 179 178 183 170 156 182 227 233 246 253 257 239 221 234 240 216 194 220 252 280 266 251 243 274 278 281 295 298 296 295 296 296 296 293 294 294 301 304 307 311 310 304
140 143 148 152 150 153 156 156 160 162 162 161 157 149 144 140 141 116 97 99 97 97 118 135 147 165 151 140 137 123 231 251 269 274 286 297 301 298 294 291 294 302 297 293 298 309 315 312 302 300 301 302 299 296
132 134 138 141 145 147 148 148 146 143 136 134 133 130 133 128 116 98 94 87 81 86 100 109 117 132 150 162 166 194 240 276 291 301 312 310 306 307 311 312 308 307 304 302 299 301 301 298 300 304 311 312 305 299
125 125 126 125 125 127 131 132 129 129 124 125 125 126 128 128 107 99 106 102 108 90 90 97 93 83 63 36 38 299 297 305 310 305 304 300 303 304 302 302 301 304 303 302 306 300 297 300 303 305 308 307 303 298
115 118 120 123 121 113 105 111 121 118 133 132 126 116 115 126 115 108 89 78 73 72 73 70 64 61 59 47 14 310 296 309 311 312 315 315 313 312 313 315 314 309 310 310 309 308 305 302 301 301 302 301 296 292
93 102 103 115 110 101 107 122 125 128 132 123 125 131 115 111 103 98 91 92 94 99 99 71 38 16 10 358 339 319 305 304 316 322 320 317 313 311 311 312 311 310 308 308 307 306 305 304 305 306 306 305 304 301
106 104 104 106 106 105 106 110 114 120 125 125 131 143 139 118 117 111 103 106 98 82 62 37 11 0 344 320 308 307 312 317 318 318 317 317 316 315 313 312 311 313 314 314 314 313 311 310 308 306 304 302 301 300
102 106 103 102 104 107 108 111 117 128 127 130 133 128 126 125 133 100 70 53 32 328 336 356 2 348 329 313 314 319 320 321 321 320 321 325 329 328 330 332 331 330 327 323 320 317 314 312 311 310 310 309 308 307
104 105 105 107 105 100 103 105 103 103 101 103 121 116 101 99 109 301 317 324 330 348 352 345 335 331 338 340 340 339 339 345 348 346 343 341 340 339 338 336 335 334 333 331 329 326 324 322 320 317 315 313 312 310
Height
5676 5680 5684 5687 5691 5694 5698 5702 5705 5708 5711 5713 5714 5715 5717 5719 5720 5722 5723 5724 5725 5725 5725 5726 5727 5726 5724 5724 5724 5722 5720 5718 5719 5719 5719 5719 5720 5719 5719 5720 5719 5720 5721 5723 5725 5727 5731 5732 5734 5736 5736 5735 5735 5735
5663 5667 5671 5675 5679 5682 5687 5690 5694 5697 5700 5703 5704 5706 5708 5710 5712 5714 5715 5716 5717 5719 5719 5718 5719 5719 5718 5718 5718 5715 5715 5714 5715 5715 5715 5715 5716 5716 5716 5717 5717 5718 5718 5720 5722 5723 5724 5728 5729 5731 5731 5732 5732 5731
5648 5653 5658 5662 5667 5671 5675 5679 5683 5687 5690 5693 5695 5697 5699 5701 5703 5705 5707 5708 5710 5711 5711 5712 5713 5712 5713 5712 5711 5710 5708 5710 5712 5712 5711 5711 5712 5712 5712 5713 5713 5714 5715 5716 5718 5718 5721 5724 5726 5727 5726 5726 5726 5724
5632 5639 5645 5650 5655 5659 5664 5668 5672 5676 5680 5683 5685 5688 5690 5693 5695 5697 5699 5701 5703 5703 5705 5705 5706 5707 5707 5706 5705 5704 5705 5705 5708 5709 5709 5708 5708 5709 5709 5709 5708 5709 5709 5711 5712 5714 5716 5720 5720 5721 5722 5722 5721 5720
5616 5624 5631 5637 5643 5648 5652 5657 5662 5666 5670 5673 5677 5680 5682 5684 5687 5690 5693 5694 5695 5698 5698 5698 5700 5702 5701 5700 5700 5699 5700 5701 5704 5705 5705 5705 5704 5705 5705 5706 5705 5706 5705 5707 5707 5709 5712 5714 5716 5716 5718 5717 5717 5718
5601 5609 5617 5624 5631 5637 5642 5647 5652 5656 5657 5664 5668 5672 5675 5677 5679 5683 5685 5688 5689 5691 5692 5693 5695 5696 5696 5695 5695 5694 5695 5697 5700 5701 5701 5701 5702 5703 5702 5703 5703 5703 5703 5703 5704 5705 5708 5709 5711 5713 5713 5713 5713 5715
5587 5595 5603 5611 5618 5625 5632 5637 5643 5648 5652 5656 5660 5664 5668 5670 5673 5677 5680 5681 5683 5685 5687 5688 5689 5690 5690 5689 5689 5690 5691 5692 5694 5696 5698 5698 5700 5700 5700 5701 5701 5702 5702 5703 5703 5703 5705 5705 5707 5710 5710 5711 5712 5712
5574 5583 5591 5599 5607 5615 5622 5628 5634 5639 5644 5649 5653 5657 5660 5664 5667 5670 5673 5675 5678 5679 5681 5683 5683 5684 5684 5684 5685 5686 5686 5687 5689 5691 5693 5695 5697 5697 5698 5696 5697 5699 5701 5702 5702 5702 5704 5705 5706 5706 5708 5708 5707 5707
5563 5571 5580 5588 5598 5606 5613 5619 5626 5631 5637 5642 5646 5650 5654 5658 5661 5665 5667 5670 5672 5676 5676 5677 5679 5679 5679 5679 5680 5681 5682 5683 5685 5687 5689 5691 5692 5694 5694 5694 5694 5697 5700 5701 5701 5701 5703 5703 5704 5705 5705 5705 5705 5706
5552 5561 5570 5579 5588 5597 5604 5611 5618 5624 5632 5636 5641 5645 5649 5653 5656 5659 5662 5665 5668 5669 5671 5672 5673 5674 5675 5675 5676 5678 5678 5680 5681 5684 5686 5688 5689 5691 5693 5693 5694 5697 5698 5699 5699 5700 5702 5702 5703 5704 5705 5705 5704 5703
5543 5553 5562 5572 5581 5589 5597 5606 5614 5619 5625 5629 5635 5641 5644 5648 5651 5654 5658 5661 5663 5665 5667 5668 5669 5670 5670 5671 5672 5673 5674 5676 5678 5683 5684 5686 5687 5688 5691 5692 5693 5695 5696 5697 5697 5698 5699 5700 5701 5701 5700 5700 5699 5698
5537 5546 5556 5565 5575 5584 5593 5601 5607 5614 5621 5626 5631 5635 5640 5643 5648 5651 5654 5657 5659 5661 5662 5663 5665 5666 5666 5668 5668 5669 5671 5673 5676 5679 5681 5684 5685 5686 5688 5689 5691 5692 5693 5695 5695 5696 5696 5697 5697 5697 5696 5694 5691 5690
5533 5542 5552 5561 5571 5580 5589 5596 5602 5609 5615 5620 5626 5631 5636 5640 5644 5647 5650 5653 5655 5657 5659 5660 5661 5662 5663 5665 5666 5666 5668 5671 5674 5677 5679 5682 5683 5684 5685 5686 5688 5689 5690 5691 5692 5693 5693 5693 5693 5692 5690 5689 5688 5687
5531 5540 5549 5558 5568 5577 5585 5593 5600 5606 5612 5618 5624 5628 5632 5635 5639 5643 5647 5650 5653 5654 5655 5656 5657 5659 5661 5662 5663 5664 5668 5669 5672 5675 5676 5678 5679 5679 5681 5682 5684 5685 5686 5687 5688 5688 5688 5688 5687 5686 5685 5684 5683 5681
5530 5540 5549 5558 5567 5576 5583 5590 5597 5603 5610 5615 5621 5625 5629 5633 5636 5640 5643 5647 5650 5651 5652 5653 5655 5657 5658 5659 5658 5661 5664 5665 5668 5670 5671 5672 5673 5675 5676 5678 5680 5682 5683 5684 5684 5684 5684 5683 5682 5681 5679 5678 5676 5674
5532 5541 5549 5558 5567 5575 5581 5587 5593 5602 5607 5613 5618 5622 5626 5629 5633 5637 5640 5644 5645 5647 5649 5650 5652 5653 5655 5657 5659 5660 5662 5663 5665 5666 5668 5669 5671 5673 5674 5672 5676 5678 5679 5679 5679 5678 5678 5677 5676 5674 5673 5671 5669 5667
5534 5542 5550 5559 5566 5573 5581 5587 5592 5599 5606 5612 5616 5619 5622 5626 5631 5634 5636 5639 5642 5644 5645 5647 5649 5650 5652 5653 5656 5657 5658 5659 5661 5663 5664 5665 5666 5669 5670 5672 5672 5672 5675 5675 5674 5673 5672 5671 5669 5667 5665 5664 5662 5661
5534 5541 5550 5559 5566 5572 5580 5587 5594 5600 5606 5610 5613 5617 5621 5625 5628 5630 5633 5636 5639 5641 5642 5643 5645 5648 5649 5650 5651 5652 5654 5655 5658 5660 5660 5662 5661 5660 5664 5668 5670 5670 5669 5669 5670 5669 5668 5667 5665 5663 5660 5658 5656 5654
5535 5543 5552 5560 5567 5574 5581 5587 5594 5598 5603 5607 5611 5615 5619 5622 5625 5628 5630 5633 5635 5637 5638 5640 5643 5644 5646 5647 5647 5648 5649 5650 5653 5655 5657 5660 5659 5660 5662 5664 5666 5666 5664 5663 5663 5664 5663 5661 5659 5657 5653 5651 5648 5646
5541 5547 5554 5561 5568 5574 5581 5587 5592 5597 5600 5605 5609 5613 5617 5620 5623 5625 5627 5629 5631 5632 5634 5636 5638 5641 5643 5643 5644 5645 5645 5647 5650 5651 5654 5657 5654 5657 5659 5661 5661 5661 5659 5659 5658 5658 5657 5655 5653 5651 5648 5645 5641 5639
5545 5551 5557 5564 5570 5576 5582 5587 5591 5595 5598 5604 5609 5612 5615 5618 5620 5622 5624 5626 5627 5628 5630 5632 5636 5638 5639 5639 5640 5641 5642 5644 5647 5650 5653 5654 5653 5655 5656 5657 5658 5657 5656 5656 5655 5654 5651 5649 5646 5643 5640 5637 5634 5631
5548 5554 5560 5565 5570 5575 5581 5586 5590 5593 5599 5604 5607 5611 5613 5616 5617 5619 5622 5623 5625 5626 5627 5629 5632 5633 5635 5635 5637 5639 5640 5641 5643 5646 5647 5648 5650 5650 5651 5652 5652 5652 5652 5652 5650 5647 5644 5643 5640 5637 5633 5630 5627 5624
5551 5556 5560 5565 5571 5576 5581 5585 5589 5593 5598 5603 5606 5609 5611 5613 5616 5619 5621 5622 5622 5623 5625 5628 5629 5630 5631 5632 5634 5637 5639 5640 5642 5644 5645 5646 5646 5646 5648 5649 5649 5648 5646 5644 5641 5640 5639 5637 5635 5632 5628 5625 5623 5620
5554 5558 5562 5566 5570 5575 5580 5584 5588 5593 5597 5601 5604 5607 5611 5614 5617 5619 5619 5620 5622 5623 5624 5626 5627 5628 5629 5632 5633 5635 5637 5639 5640 5641 5643 5643 5643 5644 5645 5645 5643 5642 5640 5638 5637 5636 5633 5632 5629 5626 5624 5622 5620 5618
5557 5560 5564 5567 5571 5576 5580 5584 5588 5592 5596 5600 5605 5609 5613 5615 5617 5619 5620 5622 5621 5621 5620 5622 5624 5626 5627 5631 5633 5635 5636 5637 5639 5640 5640 5640 5641 5641 5641 5640 5638 5636 5633 5632 5631 5628 5626 5625 5623 5621 5619 5617 5614 5610
5559 5563 5567 5570 5574 5578 5581 5585 5589 5594 5599 5604 5608 5612 5615 5617 5620 5621 5621 5621 5622 5621 5621 5622 5624 5626 5629 5632 5633 5635 5636 5637 5637 5638 5638 5638 5637 5636 5635 5634 5632 5630 5627 5625 5624 5622 5620 5618 5616 5614 5612 5609 5605 5602
5565 5568 5571 5574 5577 5581 5586 5590 5594 5599 5605 5609 5613 5616 5619 5620 5622 5624 5625 5626 5626 5626 5627 5628 5629 5631 5632 5633 5635 5635 5636 5636 5636 5636 5635 5634 5632 5630 5628 5626 5624 5624 5622 5621 5618 5616 5614 5611 5610 5608 5605 5602 5599 5596
5573 5575 5578 5582 5586 5590 5593 5597 5601 5606 5611 5615 5618 5620 5623 5626 5627 5629 5629 5629 5630 5631 5631 5632 5633 5634 5635 5635 5636 5635 5635 5634 5635 5633 5633 5631 5630 5628 5626 5624 5622 5619 5617 5615 5613 5611 5609 5606 5603 5600 5597 5593 5589 5586
5584 5586 5589 5593 5595 5598 5603 5607 5610 5613 5617 5621 5624 5626 5628 5630 5631 5632 5633 5634 5634 5634 5633 5634 5635 5635 5636 5635 5635 5635 5635 5634 5634 5632 5631 5630 5628 5626 5623 5621 5618 5616 5614 5611 5608 5605 5601 5598 5594 5590 5586 5583 5579 5576
5596 5597 5601 5603 5606 5607 5611 5614 5617 5620 5624 5627 5629 5631 5633 5635 5635 5635 5636 5636 5637 5637 5637 5637 5637 5637 5636 5636 5636 5635 5634 5634 5633 5632 5630 5628 5626 5623 5621 5618 5615 5611 5608 5604 5600 5595 5591 5587 5583 5579 5576 5572 5568 5565
5607 5609 5611 5613 5615 5619 5622 5624 5625 5629 5630 5632 5632 5635 5637 5638 5639 5639 5639 5639 5639 5639 5639 5639 5639 5638 5637 5637 5635 5634 5633 5632 5630 5628 5626 5624 5622 5619 5616 5613 5609 5605 5601 5597 5593 5588 5583 5579 5575 5571 5567 5563 5559 5556
5618 5620 5621 5622 5624 5626 5628 5631 5632 5634 5635 5636 5637 5638 5639 5640 5642 5642 5642 5642 5642 5641 5641 5640 5639 5638 5636 5634 5633 5632 5631 5629 5627 5625 5622 5620 5617 5614 5611 5607 5603 5599 5594 5590 5585 5580 5575 5571 5566 5562 5558 5554 5550 5547
5626 5627 5629 5632 5633 5634 5635 5638 5638 5638 5639 5640 5641 5642 5643 5644 5644 5643 5643 5642 5641 5641 5640 5639 5637 5635 5634 5633 5632 5630 5628 5626 5624 5622 5619 5617 5614 5610 5607 5603 5599 5594 5589 5583 5578 5573 5568 5563 5559 5554 5550 5545 5541 5537